Time,TemperatureF,DewpointF,PressureIn,WindDirection,WindDirectionDegrees,WindSpeedMPH,WindSpeedGustMPH,Humidity,HourlyPrecipIn,Conditions,Clouds,dailyrainin,SoftwareType,DateUTC
2013-04-16 00:03:00,70.7,38.6,29.56,SE,146,5.0,7.6,31,-99.99,,,-99.99,WSDL version 420,2013-04-16 05:03:00,
2013-04-16 00:09:00,70.6,38.5,29.56,SE,143,3.8,7.6,31,-99.99,,,-99.99,WSDL version 420,2013-04-16 05:09:00,
2013-04-16 00:15:00,70.5,39.1,29.56,SE,146,5.5,8.1,32,-99.99,,,-99.99,WSDL version 420,2013-04-16 05:15:00,
2013-04-16 00:21:00,70.5,39.3,29.56,SSE,150,4.3,8.1,32,-99.99,,,-99.99,WSDL version 420,2013-04-16 05:21:00,
2013-04-16 00:27:00,70.4,39.1,29.56,SSE,158,4.8,6.3,32,-99.99,,,-99.99,WSDL version 420,2013-04-16 05:27:00,
2013-04-16 00:33:00,70.3,39.1,29.56,SE,143,4.0,6.3,32,-99.99,,,-99.99,WSDL version 420,2013-04-16 05:33:00,
2013-04-16 00:39:00,70.3,39.1,29.56,SSE,154,5.6,7.8,32,-99.99,,,-99.99,WSDL version 420,2013-04-16 05:39:00,
2013-04-16 00:45:00,70.4,39.1,29.56,South,169,4.5,8.1,32,-99.99,,,-99.99,WSDL version 420,2013-04-16 05:45:00,
2013-04-16 00:51:00,70.3,39.1,29.56,SSE,158,5.8,8.1,32,-99.99,,,-99.99,WSDL version 420,2013-04-16 05:51:00,
2013-04-16 00:57:00,70.3,39.1,29.56,SSE,150,5.2,7.4,32,-99.99,,,-99.99,WSDL version 420,2013-04-16 05:57:00,
2013-04-16 01:03:00,70.2,39.0,29.56,SSE,158,6.0,6.9,32,-99.99,,,-99.99,WSDL version 420,2013-04-16 06:03:00,
2013-04-16 01:09:00,70.2,39.0,29.56,SSE,150,3.2,6.9,32,-99.99,,,-99.99,WSDL version 420,2013-04-16 06:09:00,
2013-04-16 01:15:00,70.2,39.2,29.56,SSE,148,5.2,8.7,32,-99.99,,,-99.99,WSDL version 420,2013-04-16 06:15:00,
2013-04-16 01:21:00,70.1,39.6,29.56,SSE,149,4.2,8.7,33,-99.99,,,-99.99,WSDL version 420,2013-04-16 06:21:00,
2013-04-16 01:27:00,70.0,39.6,29.56,SE,143,4.8,7.8,33,-99.99,,,-99.99,WSDL version 420,2013-04-16 06:27:00,
2013-04-16 01:33:00,69.8,39.5,29.56,SE,146,3.7,6.3,33,-99.99,,,-99.99,WSDL version 420,2013-04-16 06:33:00,
2013-04-16 01:39:00,69.8,39.4,29.56,SSE,149,4.2,5.8,33,-99.99,,,-99.99,WSDL version 420,2013-04-16 06:39:00,
2013-04-16 01:45:00,69.8,39.4,29.56,SSE,149,5.4,7.6,33,-99.99,,,-99.99,WSDL version 420,2013-04-16 06:45:00,
2013-04-16 01:51:00,69.8,39.4,29.56,SSE,150,3.8,7.6,33,-99.99,,,-99.99,WSDL version 420,2013-04-16 06:51:00,
2013-04-16 01:57:00,69.8,39.4,29.59,South,169,4.7,6.5,33,-99.99,,,-99.99,WSDL version 420,2013-04-16 06:57:00,
2013-04-16 02:03:00,69.8,39.4,29.59,SSE,149,3.9,7.4,33,-99.99,,,-99.99,WSDL version 420,2013-04-16 07:03:00,
2013-04-16 02:09:00,69.8,39.9,29.59,SE,146,3.1,5.6,34,-99.99,,,-99.99,WSDL version 420,2013-04-16 07:09:00,
2013-04-16 02:15:00,69.8,40.1,29.56,SE,146,5.4,7.6,34,-99.99,,,-99.99,WSDL version 420,2013-04-16 07:15:00,
2013-04-16 02:21:00,70.0,40.3,29.56,SE,135,6.0,10.5,34,-99.99,,,-99.99,WSDL version 420,2013-04-16 07:21:00,
2013-04-16 02:27:00,70.0,40.4,29.56,SSE,165,5.7,10.5,34,-99.99,,,-99.99,WSDL version 420,2013-04-16 07:27:00,
2013-04-16 02:33:00,70.1,40.6,29.56,SSE,158,7.2,11.4,35,-99.99,,,-99.99,WSDL version 420,2013-04-16 07:33:00,
2013-04-16 02:39:00,70.2,41.3,29.56,SSE,152,5.1,11.4,35,-99.99,,,-99.99,WSDL version 420,2013-04-16 07:39:00,
2013-04-16 02:45:00,70.1,41.2,29.56,SSE,158,6.0,10.3,35,-99.99,,,-99.99,WSDL version 420,2013-04-16 07:45:00,
2013-04-16 02:51:00,70.2,41.3,29.56,SSE,152,7.5,10.1,35,-99.99,,,-99.99,WSDL version 420,2013-04-16 07:51:00,
2013-04-16 02:57:00,70.1,41.3,29.56,SSE,152,5.5,10.5,36,-99.99,,,-99.99,WSDL version 420,2013-04-16 07:57:00,
2013-04-16 03:03:00,70.0,41.8,29.56,South,180,5.4,10.5,36,-99.99,,,-99.99,WSDL version 420,2013-04-16 08:03:00,
2013-04-16 03:09:00,70.0,41.8,29.56,SSE,158,6.3,7.4,36,-99.99,,,-99.99,WSDL version 420,2013-04-16 08:09:00,
2013-04-16 03:15:00,70.0,42.3,29.59,SSE,158,6.5,7.4,37,-99.99,,,-99.99,WSDL version 420,2013-04-16 08:15:00,
2013-04-16 03:21:00,69.9,42.5,29.59,SSE,158,5.7,6.3,37,-99.99,,,-99.99,WSDL version 420,2013-04-16 08:21:00,
2013-04-16 03:27:00,69.8,42.4,29.59,SSE,158,5.9,7.6,37,-99.99,,,-99.99,WSDL version 420,2013-04-16 08:27:00,
2013-04-16 03:33:00,70.0,42.7,29.59,North,0,0.0,8.1,38,-99.99,,,-99.99,WSDL version 420,2013-04-16 08:33:00,
2013-04-16 03:39:00,70.1,43.3,29.59,SE,146,6.0,8.1,38,-99.99,,,-99.99,WSDL version 420,2013-04-16 08:39:00,
2013-04-16 03:45:00,70.0,43.3,29.59,SSE,152,5.9,8.1,38,-99.99,,,-99.99,WSDL version 420,2013-04-16 08:45:00,
2013-04-16 03:51:00,70.2,43.7,29.59,South,177,5.3,10.5,39,-99.99,,,-99.99,WSDL version 420,2013-04-16 08:51:00,
2013-04-16 03:57:00,70.2,44.1,29.59,North,-999,-999.0,-999.0,39,-99.99,,,-99.99,WSDL version 420,2013-04-16 08:57:00,
2013-04-16 04:03:00,70.3,44.2,29.59,SSE,158,6.5,8.1,39,-99.99,,,-99.99,WSDL version 420,2013-04-16 09:03:00,
2013-04-16 04:09:00,70.3,44.9,29.59,South,174,8.7,13.2,40,-99.99,,,-99.99,WSDL version 420,2013-04-16 09:09:00,
2013-04-16 04:15:00,70.5,45.7,29.59,SSE,162,6.7,13.2,41,-99.99,,,-99.99,WSDL version 420,2013-04-16 09:15:00,
2013-04-16 04:21:00,70.5,45.6,29.59,SE,146,6.5,8.1,41,-99.99,,,-99.99,WSDL version 420,2013-04-16 09:21:00,
2013-04-16 04:27:00,70.5,45.7,29.59,SSE,158,7.0,8.7,41,-99.99,,,-99.99,WSDL version 420,2013-04-16 09:27:00,
2013-04-16 04:33:00,70.5,45.8,29.59,SSE,162,4.7,8.7,41,-99.99,,,-99.99,WSDL version 420,2013-04-16 09:33:00,
2013-04-16 04:39:00,70.5,45.7,29.59,SSE,150,4.3,8.7,41,-99.99,,,-99.99,WSDL version 420,2013-04-16 09:39:00,
2013-04-16 04:45:00,70.5,46.1,29.59,SE,146,5.1,6.9,42,-99.99,,,-99.99,WSDL version 420,2013-04-16 09:45:00,
2013-04-16 04:51:00,70.5,46.2,29.59,SSE,158,4.7,8.7,42,-99.99,,,-99.99,WSDL version 420,2013-04-16 09:51:00,
2013-04-16 04:57:00,70.6,46.4,29.59,SSE,158,5.4,7.8,42,-99.99,,,-99.99,WSDL version 420,2013-04-16 09:57:00,
2013-04-16 05:03:00,70.7,46.5,29.59,South,169,4.5,7.8,42,-99.99,,,-99.99,WSDL version 420,2013-04-16 10:03:00,
2013-04-16 05:09:00,70.7,46.5,29.59,SSE,153,5.0,6.0,42,-99.99,,,-99.99,WSDL version 420,2013-04-16 10:09:00,
2013-04-16 05:15:00,70.7,46.5,29.59,South,169,4.9,7.6,42,-99.99,,,-99.99,WSDL version 420,2013-04-16 10:15:00,
2013-04-16 05:21:00,70.9,46.8,29.59,SSE,158,3.4,7.6,42,-99.99,,,-99.99,WSDL version 420,2013-04-16 10:21:00,
2013-04-16 05:27:00,70.9,47.3,29.62,SSE,163,3.9,6.3,43,-99.99,,,-99.99,WSDL version 420,2013-04-16 10:27:00,
2013-04-16 05:33:00,70.9,47.4,29.62,SSE,163,3.0,6.0,43,-99.99,,,-99.99,WSDL version 420,2013-04-16 10:33:00,
2013-04-16 05:39:00,71.1,47.4,29.62,South,169,6.1,6.1,43,-99.99,,,-99.99,WSDL version 420,2013-04-16 10:39:00,
2013-04-16 05:45:00,71.2,47.7,29.62,SSE,158,5.0,6.0,44,-99.99,,,-99.99,WSDL version 420,2013-04-16 10:45:00,
2013-04-16 05:51:00,71.3,48.1,29.62,SSE,158,6.0,6.9,44,-99.99,,,-99.99,WSDL version 420,2013-04-16 10:51:00,
2013-04-16 05:57:00,71.4,48.1,29.62,SSE,165,6.0,6.9,44,-99.99,,,-99.99,WSDL version 420,2013-04-16 10:57:00,
2013-04-16 06:03:00,71.4,48.3,29.62,SE,143,5.4,8.7,44,-99.99,,,-99.99,WSDL version 420,2013-04-16 11:03:00,
2013-04-16 06:09:00,71.4,48.1,29.62,SSE,150,5.5,11.0,44,-99.99,,,-99.99,WSDL version 420,2013-04-16 11:09:00,
2013-04-16 06:15:00,71.4,48.3,29.62,SE,143,6.4,11.0,44,-99.99,,,-99.99,WSDL version 420,2013-04-16 11:15:00,
2013-04-16 06:21:00,71.4,48.4,29.62,North,-999,-999.0,-999.0,44,-99.99,,,-99.99,WSDL version 420,2013-04-16 11:21:00,
2013-04-16 06:27:00,71.4,48.4,29.65,North,0,0.0,5.6,44,-99.99,,,-99.99,WSDL version 420,2013-04-16 11:27:00,
2013-04-16 06:33:00,71.4,48.4,29.65,SE,140,4.2,4.9,44,-99.99,,,-99.99,WSDL version 420,2013-04-16 11:33:00,
2013-04-16 06:39:00,71.4,48.3,29.65,SE,146,4.4,6.5,44,-99.99,,,-99.99,WSDL version 420,2013-04-16 11:39:00,
2013-04-16 06:45:00,71.2,48.2,29.65,SSE,158,3.4,4.0,44,-99.99,,,-99.99,WSDL version 420,2013-04-16 11:45:00,
2013-04-16 06:51:00,71.4,48.4,29.65,SSE,158,5.4,5.6,44,-99.99,,,-99.99,WSDL version 420,2013-04-16 11:51:00,
2013-04-16 06:57:00,71.4,48.4,29.65,North,0,0.0,5.6,44,-99.99,,,-99.99,WSDL version 420,2013-04-16 11:57:00,
2013-04-16 07:03:00,71.4,48.4,29.65,SSE,163,3.6,5.8,44,-99.99,,,-99.99,WSDL version 420,2013-04-16 12:03:00,
2013-04-16 07:09:00,71.4,48.4,29.65,SSE,152,3.1,4.3,44,-99.99,,,-99.99,WSDL version 420,2013-04-16 12:09:00,
2013-04-16 07:15:00,71.6,48.6,29.68,SE,141,4.5,8.1,44,-99.99,,,-99.99,WSDL version 420,2013-04-16 12:15:00,
2013-04-16 07:21:00,71.6,48.1,29.68,SE,146,3.6,8.1,43,-99.99,,,-99.99,WSDL version 420,2013-04-16 12:21:00,
2013-04-16 07:27:00,71.8,48.2,29.65,SE,135,3.6,6.3,43,-99.99,,,-99.99,WSDL version 420,2013-04-16 12:27:00,
2013-04-16 07:33:00,71.8,48.7,29.65,SSE,163,2.3,5.4,44,-99.99,,,-99.99,WSDL version 420,2013-04-16 12:33:00,
2013-04-16 07:39:00,72.0,48.9,29.65,SSE,158,3.5,5.8,44,-99.99,,,-99.99,WSDL version 420,2013-04-16 12:39:00,
2013-04-16 07:45:00,72.0,48.8,29.68,SE,135,2.7,5.8,43,-99.99,,,-99.99,WSDL version 420,2013-04-16 12:45:00,
2013-04-16 07:51:00,72.1,48.6,29.68,SSE,158,4.0,7.4,43,-99.99,,,-99.99,WSDL version 420,2013-04-16 12:51:00,
2013-04-16 07:57:00,72.1,48.7,29.68,SSE,163,4.0,6.0,44,-99.99,,,-99.99,WSDL version 420,2013-04-16 12:57:00,
2013-04-16 08:03:00,72.2,48.7,29.68,SSE,158,4.3,6.0,43,-99.99,,,-99.99,WSDL version 420,2013-04-16 13:03:00,
2013-04-16 08:09:00,72.4,48.9,29.68,SSE,158,4.9,7.8,43,-99.99,,,-99.99,WSDL version 420,2013-04-16 13:09:00,
2013-04-16 08:15:00,72.5,49.4,29.68,SSE,161,3.8,7.8,44,-99.99,,,-99.99,WSDL version 420,2013-04-16 13:15:00,
2013-04-16 08:21:00,72.5,48.8,29.68,SSE,158,3.4,5.8,43,-99.99,,,-99.99,WSDL version 420,2013-04-16 13:21:00,
2013-04-16 08:27:00,72.5,48.8,29.68,South,169,2.2,4.3,43,-99.99,,,-99.99,WSDL version 420,2013-04-16 13:27:00,
2013-04-16 08:33:00,72.5,48.9,29.68,SSE,165,4.9,4.9,44,-99.99,,,-99.99,WSDL version 420,2013-04-16 13:33:00,
2013-04-16 08:39:00,72.8,49.7,29.68,SE,146,4.3,6.0,44,-99.99,,,-99.99,WSDL version 420,2013-04-16 13:39:00,
2013-04-16 08:45:00,73.2,49.9,29.68,SSE,161,5.6,7.8,43,-99.99,,,-99.99,WSDL version 420,2013-04-16 13:45:00,
2013-04-16 08:51:00,73.5,49.7,29.68,SSE,151,5.0,7.8,43,-99.99,,,-99.99,WSDL version 420,2013-04-16 13:51:00,
2013-04-16 08:57:00,74.1,50.2,29.68,SSE,152,5.7,7.8,43,-99.99,,,-99.99,WSDL version 420,2013-04-16 13:57:00,
2013-04-16 09:03:00,74.4,50.0,29.68,South,191,5.2,7.8,42,-99.99,,,-99.99,WSDL version 420,2013-04-16 14:03:00,
2013-04-16 09:09:00,74.8,50.2,29.68,SSE,158,6.2,7.2,42,-99.99,,,-99.99,WSDL version 420,2013-04-16 14:09:00,
2013-04-16 09:15:00,74.9,49.8,29.68,SSE,150,6.0,7.8,41,-99.99,,,-99.99,WSDL version 420,2013-04-16 14:15:00,
2013-04-16 09:21:00,74.9,49.6,29.68,South,169,4.0,11.4,41,-99.99,,,-99.99,WSDL version 420,2013-04-16 14:21:00,
2013-04-16 09:27:00,75.0,49.6,29.71,SSW,203,3.8,11.2,40,-99.99,,,-99.99,WSDL version 420,2013-04-16 14:27:00,
2013-04-16 09:33:00,75.0,49.1,29.71,SSE,165,4.5,11.2,40,-99.99,,,-99.99,WSDL version 420,2013-04-16 14:33:00,
2013-04-16 09:39:00,75.4,49.5,29.71,SSE,150,5.4,9.8,40,-99.99,,,-99.99,WSDL version 420,2013-04-16 14:39:00,
2013-04-16 09:45:00,75.6,49.2,29.68,South,173,4.3,9.8,40,-99.99,,,-99.99,WSDL version 420,2013-04-16 14:45:00,
2013-04-16 09:51:00,75.7,49.1,29.68,SSE,158,6.1,10.1,39,-99.99,,,-99.99,WSDL version 420,2013-04-16 14:51:00,
2013-04-16 09:57:00,75.8,48.6,29.71,North,-999,-999.0,-999.0,38,-99.99,,,-99.99,WSDL version 420,2013-04-16 14:57:00,
2013-04-16 10:03:00,76.1,48.8,29.71,South,180,4.5,8.5,38,-99.99,,,-99.99,WSDL version 420,2013-04-16 15:03:00,
2013-04-16 10:09:00,76.4,48.5,29.71,SSE,158,7.5,7.6,37,-99.99,,,-99.99,WSDL version 420,2013-04-16 15:09:00,
2013-04-16 10:15:00,76.6,48.4,29.71,South,169,6.0,11.0,37,-99.99,,,-99.99,WSDL version 420,2013-04-16 15:15:00,
2013-04-16 10:21:00,76.9,48.0,29.71,SSE,158,4.7,11.0,36,-99.99,,,-99.99,WSDL version 420,2013-04-16 15:21:00,
2013-04-16 10:27:00,76.9,47.2,29.71,South,169,5.8,8.7,35,-99.99,,,-99.99,WSDL version 420,2013-04-16 15:27:00,
2013-04-16 10:33:00,77.1,47.3,29.71,South,180,6.3,10.3,35,-99.99,,,-99.99,WSDL version 420,2013-04-16 15:33:00,
2013-04-16 10:39:00,77.2,46.7,29.71,North,0,0.0,10.3,34,-99.99,,,-99.99,WSDL version 420,2013-04-16 15:39:00,
2013-04-16 10:45:00,77.8,47.2,29.71,SSE,165,4.3,7.6,34,-99.99,,,-99.99,WSDL version 420,2013-04-16 15:45:00,
2013-04-16 10:51:00,77.9,46.9,29.71,SE,135,5.4,8.1,34,-99.99,,,-99.99,WSDL version 420,2013-04-16 15:51:00,
2013-04-16 10:57:00,78.4,47.0,29.71,SW,225,5.8,10.3,33,-99.99,,,-99.99,WSDL version 420,2013-04-16 15:57:00,
2013-04-16 11:03:00,79.0,46.9,29.71,South,180,6.9,10.3,32,-99.99,,,-99.99,WSDL version 420,2013-04-16 16:03:00,
2013-04-16 11:09:00,79.7,46.6,29.71,South,191,3.6,8.1,31,-99.99,,,-99.99,WSDL version 420,2013-04-16 16:09:00,
2013-04-16 11:15:00,80.4,46.9,29.71,North,-999,-999.0,-999.0,30,-99.99,,,-99.99,WSDL version 420,2013-04-16 16:15:00,
2013-04-16 11:21:00,80.2,46.4,29.71,SSE,150,4.0,12.1,31,-99.99,,,-99.99,WSDL version 420,2013-04-16 16:21:00,
2013-04-16 11:27:00,80.1,46.8,29.71,South,180,6.9,8.7,31,-99.99,,,-99.99,WSDL version 420,2013-04-16 16:27:00,
2013-04-16 11:33:00,80.8,46.5,29.71,South,180,6.4,6.4,30,-99.99,,,-99.99,WSDL version 420,2013-04-16 16:33:00,
2013-04-16 11:39:00,81.5,47.1,29.71,North,-999,-999.0,-999.0,30,-99.99,,,-99.99,WSDL version 420,2013-04-16 16:39:00,
2013-04-16 11:45:00,81.6,46.0,29.71,SE,146,5.1,12.5,28,-99.99,,,-99.99,WSDL version 420,2013-04-16 16:45:00,
2013-04-16 11:51:00,80.8,45.4,29.71,South,188,4.4,7.8,29,-99.99,,,-99.99,WSDL version 420,2013-04-16 16:51:00,
2013-04-16 11:57:00,80.9,45.5,29.71,South,180,3.3,9.8,29,-99.99,,,-99.99,WSDL version 420,2013-04-16 16:57:00,
2013-04-16 12:03:00,81.2,45.9,29.71,SSE,158,5.2,9.8,29,-99.99,,,-99.99,WSDL version 420,2013-04-16 17:03:00,
2013-04-16 12:09:00,81.5,46.0,29.71,South,180,5.7,10.7,28,-99.99,,,-99.99,WSDL version 420,2013-04-16 17:09:00,
2013-04-16 12:15:00,81.9,44.8,29.71,SSE,158,6.5,10.7,27,-99.99,,,-99.99,WSDL version 420,2013-04-16 17:15:00,
2013-04-16 12:21:00,81.8,43.6,29.71,North,0,0.0,10.5,26,-99.99,,,-99.99,WSDL version 420,2013-04-16 17:21:00,
2013-04-16 12:27:00,82.5,43.6,29.71,SE,146,6.0,10.5,25,-99.99,,,-99.99,WSDL version 420,2013-04-16 17:27:00,
2013-04-16 12:33:00,82.8,43.0,29.71,South,191,3.4,9.8,25,-99.99,,,-99.99,WSDL version 420,2013-04-16 17:33:00,
2013-04-16 12:39:00,83.4,42.2,29.71,SW,225,2.7,5.6,23,-99.99,,,-99.99,WSDL version 420,2013-04-16 17:39:00,
2013-04-16 12:45:00,84.0,42.4,29.71,North,-999,-999.0,-999.0,23,-99.99,,,-99.99,WSDL version 420,2013-04-16 17:45:00,
2013-04-16 12:51:00,83.9,41.4,29.71,SSE,158,5.4,13.0,22,-99.99,,,-99.99,WSDL version 420,2013-04-16 17:51:00,
2013-04-16 12:57:00,83.4,41.0,29.71,North,-999,-999.0,-999.0,22,-99.99,,,-99.99,WSDL version 420,2013-04-16 17:57:00,
2013-04-16 13:03:00,83.5,41.4,29.71,North,-999,-999.0,-999.0,23,-99.99,,,-99.99,WSDL version 420,2013-04-16 18:03:00,
2013-04-16 13:09:00,84.9,41.9,29.71,North,-999,-999.0,-999.0,22,-99.99,,,-99.99,WSDL version 420,2013-04-16 18:09:00,
2013-04-16 13:15:00,85.7,41.5,29.68,SW,225,4.0,7.8,20,-99.99,,,-99.99,WSDL version 420,2013-04-16 18:15:00,
2013-04-16 13:21:00,84.7,39.2,29.68,North,-999,-999.0,-999.0,20,-99.99,,,-99.99,WSDL version 420,2013-04-16 18:21:00,
2013-04-16 13:27:00,83.8,39.7,29.71,SSE,158,4.3,4.3,21,-99.99,,,-99.99,WSDL version 420,2013-04-16 18:27:00,
2013-04-16 13:33:00,83.8,39.7,29.71,SSE,158,6.6,12.3,21,-99.99,,,-99.99,WSDL version 420,2013-04-16 18:33:00,
2013-04-16 13:39:00,83.4,40.2,29.71,SSE,158,5.7,12.3,22,-99.99,,,-99.99,WSDL version 420,2013-04-16 18:39:00,
2013-04-16 13:45:00,83.5,40.7,29.71,SSE,158,6.6,12.3,22,-99.99,,,-99.99,WSDL version 420,2013-04-16 18:45:00,
2013-04-16 13:51:00,83.8,40.2,29.71,South,180,5.8,8.7,22,-99.99,,,-99.99,WSDL version 420,2013-04-16 18:51:00,
2013-04-16 13:57:00,83.8,39.8,29.68,SSE,158,5.6,9.6,21,-99.99,,,-99.99,WSDL version 420,2013-04-16 18:57:00,
2013-04-16 14:03:00,83.7,39.6,29.68,SW,225,5.8,9.6,21,-99.99,,,-99.99,WSDL version 420,2013-04-16 19:03:00,
2013-04-16 14:09:00,83.6,39.6,29.68,North,-999,-999.0,-999.0,21,-99.99,,,-99.99,WSDL version 420,2013-04-16 19:09:00,
2013-04-16 14:15:00,83.7,39.6,29.71,SW,225,4.0,5.6,21,-99.99,,,-99.99,WSDL version 420,2013-04-16 19:15:00,
2013-04-16 14:21:00,83.5,39.5,29.71,SE,141,4.2,5.4,21,-99.99,,,-99.99,WSDL version 420,2013-04-16 19:21:00,
2013-04-16 14:27:00,84.0,39.9,29.68,SSE,158,10.1,10.1,21,-99.99,,,-99.99,WSDL version 420,2013-04-16 19:27:00,
2013-04-16 14:33:00,84.8,40.6,29.68,North,-999,-999.0,-999.0,21,-99.99,,,-99.99,WSDL version 420,2013-04-16 19:33:00,
2013-04-16 14:39:00,84.8,39.3,29.68,SW,225,5.4,12.5,20,-99.99,,,-99.99,WSDL version 420,2013-04-16 19:39:00,
2013-04-16 14:45:00,84.6,39.2,29.68,East,90,2.5,8.1,20,-99.99,,,-99.99,WSDL version 420,2013-04-16 19:45:00,
2013-04-16 14:51:00,85.4,40.4,29.68,SE,143,5.4,8.1,20,-99.99,,,-99.99,WSDL version 420,2013-04-16 19:51:00,
2013-04-16 14:57:00,85.5,39.9,29.68,SW,225,3.1,8.1,20,-99.99,,,-99.99,WSDL version 420,2013-04-16 19:57:00,
2013-04-16 15:03:00,85.0,39.5,29.68,SW,225,4.0,6.5,20,-99.99,,,-99.99,WSDL version 420,2013-04-16 20:03:00,
2013-04-16 15:09:00,84.9,39.4,29.68,SSE,158,4.3,9.6,20,-99.99,,,-99.99,WSDL version 420,2013-04-16 20:09:00,
2013-04-16 15:15:00,84.8,39.3,29.68,North,-999,-999.0,-999.0,20,-99.99,,,-99.99,WSDL version 420,2013-04-16 20:15:00,
2013-04-16 15:21:00,84.6,39.2,29.68,South,180,6.7,10.5,20,-99.99,,,-99.99,WSDL version 420,2013-04-16 20:21:00,
2013-04-16 15:27:00,84.2,38.9,29.68,SSE,158,6.3,8.1,20,-99.99,,,-99.99,WSDL version 420,2013-04-16 20:27:00,
2013-04-16 15:33:00,84.6,39.2,29.68,SW,214,3.4,8.1,20,-99.99,,,-99.99,WSDL version 420,2013-04-16 20:33:00,
2013-04-16 15:39:00,85.1,39.6,29.68,SSW,203,4.7,6.5,20,-99.99,,,-99.99,WSDL version 420,2013-04-16 20:39:00,
2013-04-16 15:45:00,85.3,39.7,29.68,South,180,3.6,9.8,20,-99.99,,,-99.99,WSDL version 420,2013-04-16 20:45:00,
2013-04-16 15:51:00,85.0,39.4,29.68,SSW,203,5.6,9.8,20,-99.99,,,-99.99,WSDL version 420,2013-04-16 20:51:00,
2013-04-16 15:57:00,85.1,39.5,29.68,South,191,3.4,7.8,20,-99.99,,,-99.99,WSDL version 420,2013-04-16 20:57:00,
2013-04-16 16:03:00,84.7,39.3,29.68,SSE,158,6.0,7.6,20,-99.99,,,-99.99,WSDL version 420,2013-04-16 21:03:00,
2013-04-16 16:09:00,84.6,39.1,29.68,South,180,5.8,7.6,20,-99.99,,,-99.99,WSDL version 420,2013-04-16 21:09:00,
2013-04-16 16:15:00,84.6,39.2,29.65,SW,214,3.5,6.7,20,-99.99,,,-99.99,WSDL version 420,2013-04-16 21:15:00,
2013-04-16 16:21:00,84.5,38.9,29.65,South,180,3.4,9.8,20,-99.99,,,-99.99,WSDL version 420,2013-04-16 21:21:00,
2013-04-16 16:27:00,84.6,38.5,29.65,SSE,158,5.6,10.3,19,-99.99,,,-99.99,WSDL version 420,2013-04-16 21:27:00,
2013-04-16 16:33:00,84.7,38.2,29.65,South,169,5.6,13.0,19,-99.99,,,-99.99,WSDL version 420,2013-04-16 21:33:00,
2013-04-16 16:39:00,85.0,38.8,29.65,SE,135,5.4,13.0,20,-99.99,,,-99.99,WSDL version 420,2013-04-16 21:39:00,
2013-04-16 16:45:00,85.1,39.1,29.65,South,173,7.2,10.5,19,-99.99,,,-99.99,WSDL version 420,2013-04-16 21:45:00,
2013-04-16 16:51:00,85.0,39.2,29.65,South,180,6.5,9.2,20,-99.99,,,-99.99,WSDL version 420,2013-04-16 21:51:00,
2013-04-16 16:57:00,84.4,39.0,29.68,SSE,158,5.1,10.7,20,-99.99,,,-99.99,WSDL version 420,2013-04-16 21:57:00,
2013-04-16 17:03:00,83.8,38.5,29.68,SSE,158,3.8,10.7,20,-99.99,,,-99.99,WSDL version 420,2013-04-16 22:03:00,
2013-04-16 17:09:00,84.1,38.7,29.68,SSE,152,6.0,8.7,20,-99.99,,,-99.99,WSDL version 420,2013-04-16 22:09:00,
2013-04-16 17:15:00,84.5,39.1,29.65,South,180,4.4,8.7,20,-99.99,,,-99.99,WSDL version 420,2013-04-16 22:15:00,
2013-04-16 17:21:00,84.3,38.9,29.65,South,180,4.9,8.7,20,-99.99,,,-99.99,WSDL version 420,2013-04-16 22:21:00,
2013-04-16 17:27:00,83.8,38.5,29.68,SSW,197,2.5,9.6,20,-99.99,,,-99.99,WSDL version 420,2013-04-16 22:27:00,
2013-04-16 17:33:00,83.8,38.5,29.68,SE,135,6.5,8.5,20,-99.99,,,-99.99,WSDL version 420,2013-04-16 22:33:00,
2013-04-16 17:39:00,84.0,38.7,29.68,SSE,158,7.2,8.5,20,-99.99,,,-99.99,WSDL version 420,2013-04-16 22:39:00,
2013-04-16 17:45:00,84.6,39.2,29.68,South,180,5.7,7.4,20,-99.99,,,-99.99,WSDL version 420,2013-04-16 22:45:00,
2013-04-16 17:51:00,85.1,38.2,29.68,SSE,163,7.5,11.9,19,-99.99,,,-99.99,WSDL version 420,2013-04-16 22:51:00,
2013-04-16 17:57:00,85.4,38.5,29.68,SE,146,6.9,13.0,19,-99.99,,,-99.99,WSDL version 420,2013-04-16 22:57:00,
2013-04-16 18:03:00,84.9,38.1,29.68,SSE,158,5.8,13.0,19,-99.99,,,-99.99,WSDL version 420,2013-04-16 23:03:00,
2013-04-16 18:09:00,84.7,37.9,29.68,South,191,4.0,7.2,19,-99.99,,,-99.99,WSDL version 420,2013-04-16 23:09:00,
2013-04-16 18:15:00,84.5,37.8,29.68,SSE,158,4.8,7.4,19,-99.99,,,-99.99,WSDL version 420,2013-04-16 23:15:00,
2013-04-16 18:21:00,85.3,38.4,29.68,SSE,158,5.9,7.2,19,-99.99,,,-99.99,WSDL version 420,2013-04-16 23:21:00,
2013-04-16 18:27:00,85.0,38.2,29.68,SSE,158,7.4,11.0,19,-99.99,,,-99.99,WSDL version 420,2013-04-16 23:27:00,
2013-04-16 18:33:00,84.3,38.1,29.68,SSE,165,7.3,11.0,20,-99.99,,,-99.99,WSDL version 420,2013-04-16 23:33:00,
2013-04-16 18:39:00,83.7,38.4,29.68,North,-999,-999.0,-999.0,20,-99.99,,,-99.99,WSDL version 420,2013-04-16 23:39:00,
2013-04-16 18:45:00,83.2,38.0,29.68,SSE,161,5.8,10.3,20,-99.99,,,-99.99,WSDL version 420,2013-04-16 23:45:00,
2013-04-16 18:51:00,82.8,37.7,29.68,South,180,3.8,8.5,20,-99.99,,,-99.99,WSDL version 420,2013-04-16 23:51:00,
2013-04-16 18:57:00,82.5,37.4,29.68,SSE,158,2.0,4.3,20,-99.99,,,-99.99,WSDL version 420,2013-04-16 23:57:00,
2013-04-16 19:03:00,82.0,38.2,29.68,SE,135,2.5,6.3,21,-99.99,,,-99.99,WSDL version 420,2013-04-17 00:03:00,
2013-04-16 19:09:00,81.7,38.0,29.68,SSE,158,8.1,8.1,21,-99.99,,,-99.99,WSDL version 420,2013-04-17 00:09:00,
2013-04-16 19:15:00,81.5,37.8,29.68,South,169,5.6,8.1,21,-99.99,,,-99.99,WSDL version 420,2013-04-17 00:15:00,
2013-04-16 19:21:00,81.2,37.6,29.68,SSE,158,4.0,7.8,21,-99.99,,,-99.99,WSDL version 420,2013-04-17 00:21:00,
2013-04-16 19:27:00,80.9,37.6,29.68,South,169,4.5,10.3,22,-99.99,,,-99.99,WSDL version 420,2013-04-17 00:27:00,
2013-04-16 19:33:00,80.7,38.4,29.68,SSE,158,4.0,5.4,22,-99.99,,,-99.99,WSDL version 420,2013-04-17 00:33:00,
2013-04-16 19:39:00,80.4,38.1,29.68,SSW,195,4.0,6.3,22,-99.99,,,-99.99,WSDL version 420,2013-04-17 00:39:00,
2013-04-16 19:45:00,80.3,38.1,29.68,SSE,158,3.6,5.4,22,-99.99,,,-99.99,WSDL version 420,2013-04-17 00:45:00,
2013-04-16 19:51:00,80.2,38.8,29.68,SE,141,3.1,5.4,23,-99.99,,,-99.99,WSDL version 420,2013-04-17 00:51:00,
2013-04-16 19:57:00,79.8,38.7,29.68,SSE,150,3.1,4.9,23,-99.99,,,-99.99,WSDL version 420,2013-04-17 00:57:00,
2013-04-16 20:03:00,79.6,38.6,29.68,SSE,165,3.6,4.9,23,-99.99,,,-99.99,WSDL version 420,2013-04-17 01:03:00,
2013-04-16 20:09:00,79.4,39.5,29.68,SSE,165,2.5,4.0,24,-99.99,,,-99.99,WSDL version 420,2013-04-17 01:09:00,
2013-04-16 20:15:00,79.3,39.4,29.71,SSE,158,2.3,3.6,24,-99.99,,,-99.99,WSDL version 420,2013-04-17 01:15:00,
2013-04-16 20:21:00,79.2,40.4,29.71,SSE,158,2.6,3.6,25,-99.99,,,-99.99,WSDL version 420,2013-04-17 01:21:00,
2013-04-16 20:27:00,79.0,40.2,29.68,North,0,0.0,3.6,25,-99.99,,,-99.99,WSDL version 420,2013-04-17 01:27:00,
2013-04-16 20:33:00,78.8,40.2,29.68,South,180,0.5,2.2,26,-99.99,,,-99.99,WSDL version 420,2013-04-17 01:33:00,
2013-04-16 20:39:00,78.2,40.6,29.68,SE,135,0.0,1.1,26,-99.99,,,-99.99,WSDL version 420,2013-04-17 01:39:00,
2013-04-16 20:45:00,77.8,40.8,29.71,SE,135,0.0,0.0,27,-99.99,,,-99.99,WSDL version 420,2013-04-17 01:45:00,
2013-04-16 20:51:00,77.5,41.5,29.71,SE,135,0.0,0.0,28,-99.99,,,-99.99,WSDL version 420,2013-04-17 01:51:00,
2013-04-16 20:57:00,77.4,41.8,29.71,SE,135,0.0,0.0,28,-99.99,,,-99.99,WSDL version 420,2013-04-17 01:57:00,
2013-04-16 21:03:00,77.2,42.3,29.71,SE,135,0.0,0.0,29,-99.99,,,-99.99,WSDL version 420,2013-04-17 02:03:00,
2013-04-16 21:09:00,77.0,43.3,29.71,SE,135,0.0,0.0,30,-99.99,,,-99.99,WSDL version 420,2013-04-17 02:09:00,
2013-04-16 21:15:00,76.7,43.0,29.74,SE,135,0.0,0.0,30,-99.99,,,-99.99,WSDL version 420,2013-04-17 02:15:00,
2013-04-16 21:21:00,76.4,43.6,29.74,SE,135,0.0,0.0,31,-99.99,,,-99.99,WSDL version 420,2013-04-17 02:21:00,
2013-04-16 21:27:00,76.1,43.3,29.71,SE,135,0.0,0.0,31,-99.99,,,-99.99,WSDL version 420,2013-04-17 02:27:00,
2013-04-16 21:33:00,76.2,43.4,29.71,SE,135,0.0,0.0,31,-99.99,,,-99.99,WSDL version 420,2013-04-17 02:33:00,
2013-04-16 21:39:00,76.0,43.2,29.71,SE,135,0.0,0.0,31,-99.99,,,-99.99,WSDL version 420,2013-04-17 02:39:00,
2013-04-16 21:45:00,75.6,42.9,29.71,SE,135,0.0,0.0,31,-99.99,,,-99.99,WSDL version 420,2013-04-17 02:45:00,
2013-04-16 21:51:00,75.7,43.8,29.71,SE,135,0.0,0.0,32,-99.99,,,-99.99,WSDL version 420,2013-04-17 02:51:00,
2013-04-16 21:57:00,75.7,43.8,29.71,SE,135,0.0,0.0,32,-99.99,,,-99.99,WSDL version 420,2013-04-17 02:57:00,
2013-04-16 22:03:00,75.7,43.8,29.71,SE,135,0.4,1.6,32,-99.99,,,-99.99,WSDL version 420,2013-04-17 03:03:00,
2013-04-16 22:09:00,75.9,43.9,29.71,SE,135,1.1,1.6,32,-99.99,,,-99.99,WSDL version 420,2013-04-17 03:09:00,
2013-04-16 22:15:00,75.8,43.9,29.74,SSE,158,1.0,2.0,32,-99.99,,,-99.99,WSDL version 420,2013-04-17 03:15:00,
2013-04-16 22:21:00,75.7,43.8,29.74,South,169,1.3,2.2,32,-99.99,,,-99.99,WSDL version 420,2013-04-17 03:21:00,
2013-04-16 22:27:00,75.8,43.9,29.74,SSE,158,0.7,2.2,32,-99.99,,,-99.99,WSDL version 420,2013-04-17 03:27:00,
2013-04-16 22:33:00,75.6,44.3,29.74,SE,135,0.0,1.6,33,-99.99,,,-99.99,WSDL version 420,2013-04-17 03:33:00,
2013-04-16 22:39:00,75.2,44.2,29.74,SE,135,0.0,1.6,33,-99.99,,,-99.99,WSDL version 420,2013-04-17 03:39:00,
2013-04-16 22:45:00,75.1,44.1,29.71,SE,135,1.1,2.0,33,-99.99,,,-99.99,WSDL version 420,2013-04-17 03:45:00,
2013-04-16 22:51:00,75.1,44.2,29.71,SSE,158,2.1,2.5,33,-99.99,,,-99.99,WSDL version 420,2013-04-17 03:51:00,
2013-04-16 22:57:00,75.2,44.2,29.71,SSE,158,1.9,2.5,33,-99.99,,,-99.99,WSDL version 420,2013-04-17 03:57:00,
2013-04-16 23:00:00,75.2,44.2,29.71,SSE,150,1.5,2.5,33,-99.99,,,-99.99,WSDL version 420,2013-04-17 04:00:00,
2013-04-16 23:03:00,75.1,44.4,29.71,SE,135,1.6,2.5,34,-99.99,,,-99.99,WSDL version 420,2013-04-17 04:03:00,
2013-04-16 23:09:00,74.8,44.6,29.71,SSE,158,1.5,2.5,34,-99.99,,,-99.99,WSDL version 420,2013-04-17 04:09:00,
2013-04-16 23:12:00,74.8,44.6,29.74,SSE,158,1.6,2.5,34,-99.99,,,-99.99,WSDL version 420,2013-04-17 04:12:00,
2013-04-16 23:18:00,75.0,44.7,29.74,SSE,158,2.4,2.9,34,-99.99,,,-99.99,WSDL version 420,2013-04-17 04:18:00,
2013-04-16 23:24:00,75.0,44.8,29.74,SSE,158,1.7,2.9,34,-99.99,,,-99.99,WSDL version 420,2013-04-17 04:24:00,
2013-04-16 23:27:00,75.0,44.8,29.71,SSE,158,1.5,2.5,34,-99.99,,,-99.99,WSDL version 420,2013-04-17 04:27:00,
2013-04-16 23:33:00,75.0,44.8,29.71,SSE,158,1.8,2.5,34,-99.99,,,-99.99,WSDL version 420,2013-04-17 04:33:00,
2013-04-16 23:39:00,74.8,44.6,29.71,SSE,158,2.1,2.7,34,-99.99,,,-99.99,WSDL version 420,2013-04-17 04:39:00,
2013-04-16 23:45:00,74.6,44.4,29.71,SE,135,2.0,2.7,34,-99.99,,,-99.99,WSDL version 420,2013-04-17 04:45:00,
2013-04-16 23:51:00,74.5,44.5,29.71,SE,135,1.6,2.5,35,-99.99,,,-99.99,WSDL version 420,2013-04-17 04:51:00,
2013-04-16 23:57:00,74.3,44.9,29.74,SSE,158,1.7,2.9,35,-99.99,,,-99.99,WSDL version 420,2013-04-17 04:57:00,